Weather History for St. Joseph, MO

Change the Weather History Date:

Friday, January 11, 2013

  Actual Average Record
Temperature  
Mean Temperature 49 °F 27 °F  
Max Temperature 57 °F 37 °F 60 °F (2006)
Min Temperature 40 °F 17 °F -19 °F (1918)
Degree Days  
Heating Degree Days 16 38  
Month to date heating degree days 376 421  
Since 1 July heating degree days 2472 2634  
Cooling Degree Days 0 0  
Month to date cooling degree days 0 0  
Year to date cooling degree days 0 0  
Moisture  
Dew Point 42 °F    
Average Humidity 74    
Maximum Humidity 100    
Minimum Humidity 47    
Precipitation  
Precipitation 0.01 in 0.01 in 0.39 in (1949)
Month to date precipitation 0.30 0.20  
Year to date precipitation 0.30 0.20  
Sea Level Pressure  
Sea Level Pressure 29.66 in    
Wind  
Wind Speed 15 mph (South)    
Max Wind Speed 29 mph    
Max Gust Speed 36 mph    
Visibility 5 miles    
Events Fog    
T = Trace of Precipitation, MM = Missing Value Source: NWS Daily Summary

Daily Weather History Graph

Daily Weather History Graph

Search for Another Location

Airport:

Trip Planner

Search our weather history database for the weather conditions in past years. The results will help you decide how hot, cold, wet, or windy it might be!

Date:

Astronomy

Jan. 11, 2013 Rise Set
Actual Time 7:40 AM CST 5:15 PM CST
Civil Twilight 7:10 AM CST 5:45 PM CST
Nautical Twilight 6:36 AM CST 6:18 PM CST
Astronomical Twilight 6:04 AM CST 6:51 PM CST
Moon 7:14 AM CST (1/11) 5:34 PM CST (1/11)
Length of Visible Light 10h 35m
Length of Day
9h 35m
Waning Crescent, 0% of the Moon is Illuminated
Jan 11
Waning Crescent
Jan 11
New
Jan 18
First Quarter
Jan 26
Full
Feb 3
Last Quarter

Hourly Weather History & Observations

Time (CST) Temp. Windchill Dew Point Humidity Pressure Visibility Wind Dir Wind Speed Gust Speed Precip Events Conditions
12:53 AM 41.0 °F 39.0 °F 39.9 °F 96% 29.75 in 0.2 mi Variable 3.5 mph - N/A Fog Fog
1:02 AM 41.0 °F 38.0 °F 39.2 °F 93% 29.74 in 0.5 mi South 4.6 mph - N/A Fog Fog
1:10 AM 41.0 °F 39.0 °F 39.2 °F 93% 29.73 in 0.5 mi SSE 3.5 mph - N/A Fog Fog
1:19 AM 41.0 °F 38.0 °F 39.2 °F 93% 29.73 in 0.5 mi SSE 4.6 mph - N/A Fog Fog
1:32 AM 41.0 °F 38.0 °F 39.2 °F 93% 29.73 in 0.2 mi SE 4.6 mph - N/A Fog Fog
1:40 AM 41.0 °F 39.0 °F 39.2 °F 93% 29.73 in 0.5 mi SE 3.5 mph - N/A Fog Fog
1:53 AM 41.0 °F 38.0 °F 41.0 °F 100% 29.76 in 0.5 mi South 4.6 mph - N/A Fog Fog
2:10 AM 41.0 °F 37.1 °F 39.2 °F 93% 29.71 in 0.2 mi ESE 5.8 mph - N/A Fog Fog
2:18 AM 42.8 °F 41.1 °F 41.0 °F 93% 29.71 in 0.5 mi East 3.5 mph - N/A Fog Fog
2:32 AM 42.8 °F 39.3 °F 41.0 °F 93% 29.71 in 0.5 mi ESE 5.8 mph - N/A Fog Fog
2:44 AM 42.8 °F 41.1 °F 41.0 °F 93% 29.72 in 0.2 mi ESE 3.5 mph - N/A Fog Fog
2:53 AM 43.0 °F 40.3 °F 42.1 °F 97% 29.73 in 0.2 mi SE 4.6 mph - N/A Fog Fog
3:53 AM 41.0 °F 39.0 °F 39.9 °F 96% 29.71 in 0.2 mi SSE 3.5 mph - N/A Fog Fog
4:51 AM 41.0 °F - 39.2 °F 93% 29.68 in 0.2 mi Calm Calm - N/A Fog Fog
4:53 AM 41.0 °F 39.0 °F 39.9 °F 96% 29.70 in 0.2 mi SSW 3.5 mph - N/A Fog Fog
5:06 AM 44.6 °F 42.2 °F 42.8 °F 93% 29.68 in 0.8 mi South 4.6 mph - N/A   Overcast
5:08 AM 44.6 °F 42.2 °F 42.8 °F 93% 29.68 in 1.0 mi South 4.6 mph - N/A   Overcast
5:16 AM 44.6 °F 40.7 °F 42.8 °F 93% 29.68 in 3.0 mi SSW 6.9 mph - N/A   Overcast
5:31 AM 46.4 °F 41.1 °F 44.6 °F 93% 29.67 in 10.0 mi South 11.5 mph - N/A   Overcast
5:38 AM 46.4 °F 41.5 °F 44.6 °F 93% 29.67 in 10.0 mi South 10.4 mph - N/A   Overcast
5:53 AM 46.9 °F - 45.0 °F 93% 29.67 in 10.0 mi South 12.7 mph - 0.01 in   Overcast
6:53 AM 48.0 °F - 45.0 °F 89% 29.66 in 10.0 mi South 11.5 mph - N/A   Overcast
7:53 AM 48.9 °F - 45.0 °F 86% 29.64 in 10.0 mi SSE 16.1 mph - N/A   Overcast
8:53 AM 50.0 °F - 45.0 °F 83% 29.63 in 10.0 mi South 19.6 mph - N/A   Mostly Cloudy
9:53 AM 50.0 °F - 45.0 °F 83% 29.62 in 10.0 mi South 19.6 mph - N/A   Mostly Cloudy
10:01 AM 50.0 °F - 44.6 °F 82% 29.62 in 10.0 mi South 18.4 mph 27.6 mph N/A   Scattered Clouds
10:53 AM 51.1 °F - 45.0 °F 80% 29.61 in 10.0 mi South 19.6 mph - N/A   Clear
11:53 AM 53.1 °F - 45.0 °F 74% 29.57 in 10.0 mi South 20.7 mph 27.6 mph N/A   Clear
12:53 PM 55.9 °F - 46.0 °F 69% 29.56 in 10.0 mi South 16.1 mph 25.3 mph N/A   Clear
2:53 PM 54.0 °F - 44.1 °F 69% 29.53 in 10.0 mi South 13.8 mph - N/A   Clear
3:53 PM 54.0 °F - 44.1 °F 69% 29.53 in 10.0 mi South 13.8 mph - N/A   Clear
4:53 PM 55.9 °F - 44.1 °F 64% 29.55 in 10.0 mi SSW 20.7 mph 26.5 mph N/A   Clear
5:53 PM 55.9 °F - 44.1 °F 64% 29.55 in 10.0 mi South 18.4 mph - N/A   Clear
6:53 PM 55.0 °F - 44.1 °F 67% 29.55 in 10.0 mi South 20.7 mph - N/A   Clear
7:53 PM 55.0 °F - 44.1 °F 67% 29.56 in 10.0 mi South 17.3 mph - N/A   Clear
8:53 PM 55.9 °F - 44.1 °F 64% 29.58 in 10.0 mi SSW 19.6 mph - N/A   Clear
9:53 PM 54.0 °F - 44.1 °F 69% 29.61 in 10.0 mi SSW 16.1 mph - N/A   Clear
11:53 PM 50.0 °F - 24.1 °F 36% 29.71 in 7.0 mi West 24.2 mph 31.1 mph N/A   Overcast